QPF
0.22 0.19 0.14 0.10 0.06 0.03 0.02 0.01 0.01 0.00 0.00 0.00 0.00 0.00 0.00 0.00 0.00 0.00 0.00 0.00 0.00 0.01 0.01 0.01 0.02 0.03 0.04 0.05 0.06 0.07 0.08 0.07 0.06 0.05 0.05 0.06 0.07 0.07 0.07 0.04 0.03 0.01 0.01
0.18 0.15 0.12 0.08 0.05 0.03 0.02 0.01 0.00 0.00 0.00 0.00 0.00 0.00 0.00 0.00 0.00 0.00 0.00 0.00 0.00 0.00 0.00 0.00 0.00 0.01 0.01 0.01 0.02 0.02 0.02 0.02 0.03 0.03 0.03 0.04 0.04 0.06 0.07 0.06 0.05 0.03 0.01
0.13 0.10 0.07 0.05 0.04 0.02 0.01 0.00 0.00 0.00 0.00 0.00 0.00 0.00 0.00 0.00 0.00 0.00 0.00 0.00 0.00 0.00 0.00 0.00 0.00 0.00 0.00 0.00 0.00 0.00 0.00 0.00 0.01 0.01 0.01 0.03 0.03 0.04 0.07 0.07 0.06 0.04 0.02
0.09 0.07 0.05 0.03 0.02 0.02 0.01 0.00 0.00 0.00 0.00 0.00 0.00 0.00 0.00 0.00 0.00 0.00 0.00 0.00 0.00 0.00 0.00 0.00 0.00 0.00 0.00 0.00 0.00 0.00 0.00 0.00 0.00 0.00 0.01 0.01 0.03 0.04 0.06 0.09 0.08 0.06 0.04
0.09 0.07 0.05 0.04 0.02 0.01 0.00 0.00 0.00 0.00 0.00 0.00 0.00 0.00 0.00 0.00 0.00 0.00 0.00 0.00 0.00 0.00 0.00 0.00 0.00 0.00 0.00 0.00 0.00 0.00 0.00 0.00 0.00 0.00 0.00 0.01 0.02 0.04 0.06 0.09 0.10 0.09 0.07
0.06 0.05 0.05 0.05 0.04 0.02 0.01 0.00 0.00 0.00 0.00 0.00 0.00 0.00 0.00 0.00 0.00 0.00 0.00 0.00 0.00 0.00 0.00 0.00 0.00 0.00 0.00 0.00 0.00 0.00 0.00 0.00 0.00 0.00 0.00 0.01 0.02 0.03 0.04 0.08 0.11 0.10 0.10
0.04 0.04 0.04 0.06 0.06 0.03 0.01 0.00 0.00 0.00 0.00 0.00 0.00 0.00 0.00 0.00 0.00 0.00 0.00 0.00 0.00 0.00 0.00 0.00 0.00 0.00 0.00 0.00 0.00 0.00 0.00 0.00 0.00 0.00 0.00 0.01 0.01 0.02 0.04 0.08 0.13 0.19 0.22
0.05 0.05 0.03 0.03 0.03 0.02 0.02 0.01 0.00 0.00 0.00 0.00 0.00 0.00 0.00 0.00 0.00 0.00 0.00 0.00 0.00 0.00 0.00 0.00 0.00 0.00 0.00 0.00 0.00 0.00 0.00 0.00 0.00 0.00 0.00 0.00 0.00 0.01 0.03 0.09 0.18 0.27 0.36
0.04 0.04 0.03 0.01 0.01 0.01 0.01 0.01 0.01 0.00 0.00 0.00 0.00 0.00 0.00 0.00 0.00 0.00 0.00 0.00 0.00 0.00 0.00 0.00 0.00 0.00 0.00 0.00 0.00 0.00 0.00 0.00 0.00 0.00 0.00 0.00 0.00 0.01 0.02 0.06 0.14 0.27 0.41
0.03 0.02 0.02 0.01 0.00 0.00 0.00 0.00 0.00 0.00 0.00 0.00 0.00 0.00 0.00 0.00 0.00 0.00 0.00 0.00 0.00 0.00 0.00 0.00 0.00 0.00 0.00 0.00 0.00 0.00 0.00 0.00 0.00 0.00 0.00 0.00 0.00 0.00 0.01 0.02 0.07 0.16 0.26
0.02 0.02 0.01 0.01 0.00 0.00 0.00 0.00 0.00 0.00 0.00 0.00 0.00 0.00 0.00 0.00 0.00 0.00 0.00 0.00 0.00 0.00 0.00 0.00 0.00 0.00 0.00 0.00 0.00 0.00 0.00 0.00 0.00 0.00 0.00 0.00 0.00 0.00 0.00 0.00 0.01 0.03 0.09
0.01 0.01 0.01 0.01 0.00 0.00 0.00 0.00 0.00 0.00 0.00 0.00 0.00 0.00 0.00 0.00 0.00 0.00 0.00 0.00 0.00 0.00 0.00 0.00 0.00 0.00 0.00 0.00 0.00 0.00 0.00 0.00 0.00 0.00 0.00 0.00 0.00 0.00 0.00 0.00 0.00 0.00 0.01
0.00 0.00 0.00 0.00 0.00 0.00 0.00 0.00 0.00 0.00 0.00 0.00 0.00 0.00 0.00 0.00 0.00 0.00 0.00 0.00 0.00 0.00 0.00 0.00 0.00 0.00 0.00 0.00 0.00 0.00 0.00 0.00 0.00 0.00 0.00 0.00 0.00 0.00 0.00 0.00 0.00 0.00 0.00
0.00 0.00 0.00 0.00 0.00 0.00 0.00 0.00 0.00 0.00 0.00 0.00 0.00 0.00 0.00 0.00 0.00 0.00 0.00 0.00 0.00 0.00 0.00 0.00 0.00 0.00 0.00 0.00 0.00 0.00 0.00 0.00 0.00 0.00 0.00 0.01 0.01 0.01 0.01 0.01 0.00 0.00 0.00
0.00 0.00 0.00 0.00 0.00 0.00 0.00 0.00 0.00 0.00 0.00 0.00 0.00 0.00 0.00 0.00 0.00 0.00 0.00 0.00 0.00 0.00 0.00 0.00 0.00 0.00 0.00 0.00 0.00 0.00 0.00 0.00 0.00 0.00 0.00 0.00 0.01 0.01 0.02 0.02 0.01 0.01 0.01
0.00 0.00 0.00 0.00 0.00 0.00 0.00 0.00 0.00 0.00 0.00 0.00 0.00 0.00 0.00 0.00 0.00 0.00 0.00 0.00 0.00 0.00 0.00 0.00 0.00 0.00 0.00 0.00 0.00 0.00 0.00 0.00 0.00 0.00 0.00 0.00 0.00 0.01 0.01 0.02 0.02 0.02 0.02
0.00 0.00 0.00 0.00 0.00 0.00 0.00 0.00 0.00 0.00 0.00 0.00 0.00 0.00 0.00 0.00 0.00 0.00 0.00 0.00 0.00 0.00 0.00 0.00 0.00 0.00 0.00 0.00 0.00 0.00 0.00 0.00 0.00 0.00 0.00 0.00 0.00 0.00 0.01 0.01 0.01 0.01 0.02
0.00 0.00 0.00 0.00 0.00 0.00 0.00 0.00 0.00 0.00 0.00 0.00 0.00 0.00 0.00 0.00 0.00 0.00 0.00 0.00 0.00 0.00 0.00 0.00 0.00 0.00 0.00 0.00 0.00 0.00 0.00 0.00 0.00 0.00 0.00 0.00 0.00 0.00 0.01 0.01 0.01 0.01 0.02
0.00 0.00 0.00 0.00 0.00 0.00 0.00 0.00 0.00 0.00 0.00 0.00 0.00 0.00 0.00 0.00 0.00 0.00 0.00 0.00 0.00 0.00 0.00 0.00 0.00 0.00 0.00 0.00 0.00 0.00 0.00 0.00 0.00 0.00 0.00 0.00 0.00 0.00 0.00 0.01 0.01 0.01 0.01
0.00 0.00 0.00 0.00 0.00 0.00 0.00 0.00 0.00 0.00 0.00 0.00 0.00 0.00 0.00 0.00 0.00 0.00 0.00 0.00 0.00 0.00 0.00 0.00 0.00 0.00 0.00 0.00 0.00 0.00 0.00 0.00 0.00 0.00 0.00 0.00 0.00 0.00 0.00 0.00 0.01 0.01 0.01
0.00 0.00 0.00 0.00 0.00 0.00 0.00 0.00 0.00 0.00 0.00 0.00 0.00 0.00 0.00 0.00 0.00 0.00 0.00 0.00 0.00 0.00 0.00 0.00 0.00 0.00 0.00 0.00 0.00 0.00 0.00 0.00 0.00 0.00 0.00 0.00 0.00 0.00 0.00 0.00 0.01 0.01 0.01
0.00 0.00 0.00 0.00 0.00 0.00 0.00 0.00 0.00 0.00 0.00 0.00 0.00 0.00 0.00 0.00 0.00 0.00 0.00 0.00 0.00 0.00 0.00 0.00 0.00 0.00 0.00 0.00 0.00 0.00 0.00 0.00 0.00 0.00 0.00 0.00 0.00 0.00 0.00 0.00 0.00 0.00 0.01
0.00 0.00 0.00 0.00 0.00 0.00 0.00 0.00 0.00 0.00 0.00 0.00 0.00 0.00 0.00 0.00 0.00 0.00 0.00 0.00 0.00 0.00 0.00 0.00 0.00 0.00 0.00 0.00 0.00 0.00 0.00 0.00 0.00 0.00 0.00 0.00 0.00 0.00 0.00 0.00 0.00 0.00 0.00
0.00 0.00 0.00 0.00 0.00 0.00 0.00 0.00 0.00 0.00 0.00 0.00 0.00 0.00 0.00 0.00 0.00 0.00 0.00 0.00 0.00 0.00 0.00 0.00 0.00 0.00 0.00 0.00 0.00 0.00 0.00 0.00 0.00 0.00 0.00 0.00 0.00 0.00 0.00 0.00 0.00 0.00 0.00
0.00 0.00 0.00 0.00 0.00 0.00 0.00 0.00 0.00 0.00 0.00 0.00 0.00 0.00 0.00 0.00 0.00 0.00 0.00 0.00 0.00 0.00 0.00 0.00 0.01 0.01 0.01 0.01 0.01 0.01 0.00 0.00 0.00 0.00 0.00 0.00 0.00 0.00 0.00 0.00 0.00 0.00 0.00
0.00 0.00 0.00 0.00 0.00 0.00 0.00 0.00 0.00 0.00 0.00 0.00 0.00 0.00 0.00 0.00 0.00 0.00 0.00 0.00 0.01 0.01 0.01 0.01 0.01 0.01 0.01 0.01 0.01 0.01 0.00 0.00 0.00 0.00 0.00 0.00 0.00 0.00 0.00 0.00 0.00 0.00 0.00
MSLP
1010.21 1010.55 1011.01 1011.51 1012.01 1012.45 1012.80 1013.05 1013.22 1013.30 1013.33 1013.32 1013.29 1013.25 1013.20 1013.13 1013.06 1012.98 1012.89 1012.82 1012.77 1012.75 1012.76 1012.81 1012.87 1012.92 1012.93 1012.87 1012.71 1012.46 1012.10 1011.67 1011.19 1010.69 1010.24 1009.85 1009.54 1009.33 1009.19 1009.11 1009.04 1008.95 1008.82
1010.69 1010.99 1011.40 1011.86 1012.31 1012.72 1013.05 1013.29 1013.45 1013.53 1013.56 1013.55 1013.52 1013.49 1013.44 1013.38 1013.32 1013.25 1013.18 1013.11 1013.06 1013.04 1013.03 1013.04 1013.06 1013.06 1013.03 1012.93 1012.74 1012.47 1012.11 1011.69 1011.23 1010.76 1010.33 1009.95 1009.65 1009.44 1009.30 1009.21 1009.14 1009.07 1008.97
1011.22 1011.49 1011.85 1012.25 1012.65 1013.01 1013.30 1013.52 1013.67 1013.75 1013.79 1013.79 1013.78 1013.76 1013.74 1013.71 1013.68 1013.63 1013.59 1013.54 1013.50 1013.46 1013.44 1013.42 1013.40 1013.35 1013.27 1013.13 1012.91 1012.62 1012.26 1011.84 1011.39 1010.93 1010.51 1010.13 1009.83 1009.60 1009.44 1009.33 1009.26 1009.20 1009.13
1011.73 1011.97 1012.28 1012.63 1012.97 1013.28 1013.54 1013.73 1013.87 1013.96 1014.01 1014.04 1014.06 1014.08 1014.09 1014.10 1014.10 1014.09 1014.07 1014.05 1014.01 1013.98 1013.94 1013.89 1013.83 1013.74 1013.62 1013.44 1013.19 1012.89 1012.51 1012.10 1011.65 1011.19 1010.76 1010.37 1010.04 1009.78 1009.59 1009.45 1009.37 1009.31 1009.27
1012.15 1012.37 1012.65 1012.95 1013.25 1013.51 1013.74 1013.92 1014.05 1014.15 1014.23 1014.29 1014.35 1014.40 1014.46 1014.50 1014.54 1014.57 1014.58 1014.57 1014.55 1014.51 1014.46 1014.38 1014.29 1014.17 1014.00 1013.79 1013.53 1013.20 1012.83 1012.41 1011.96 1011.50 1011.05 1010.64 1010.28 1009.97 1009.73 1009.56 1009.44 1009.37 1009.34
1012.42 1012.65 1012.91 1013.18 1013.45 1013.69 1013.89 1014.06 1014.21 1014.33 1014.43 1014.53 1014.62 1014.72 1014.81 1014.89 1014.97 1015.02 1015.05 1015.05 1015.03 1014.99 1014.92 1014.83 1014.70 1014.55 1014.36 1014.13 1013.85 1013.52 1013.14 1012.72 1012.28 1011.81 1011.35 1010.92 1010.51 1010.16 1009.87 1009.64 1009.47 1009.37 1009.33
1012.55 1012.79 1013.05 1013.31 1013.57 1013.80 1014.00 1014.18 1014.34 1014.48 1014.62 1014.75 1014.88 1015.01 1015.13 1015.24 1015.33 1015.40 1015.44 1015.45 1015.42 1015.37 1015.28 1015.17 1015.02 1014.85 1014.64 1014.39 1014.10 1013.77 1013.40 1013.00 1012.56 1012.10 1011.64 1011.18 1010.75 1010.35 1010.00 1009.72 1009.49 1009.34 1009.26
1012.56 1012.82 1013.09 1013.36 1013.62 1013.86 1014.08 1014.27 1014.46 1014.63 1014.80 1014.96 1015.12 1015.27 1015.41 1015.53 1015.63 1015.69 1015.73 1015.73 1015.70 1015.63 1015.53 1015.39 1015.23 1015.04 1014.82 1014.56 1014.27 1013.96 1013.60 1013.21 1012.80 1012.36 1011.90 1011.44 1010.99 1010.56 1010.17 1009.83 1009.54 1009.33 1009.19
1012.49 1012.78 1013.07 1013.36 1013.63 1013.89 1014.13 1014.36 1014.58 1014.78 1014.98 1015.17 1015.35 1015.51 1015.65 1015.77 1015.86 1015.92 1015.95 1015.93 1015.89 1015.80 1015.68 1015.53 1015.36 1015.15 1014.92 1014.67 1014.38 1014.08 1013.75 1013.39 1013.01 1012.60 1012.16 1011.72 1011.27 1010.82 1010.40 1010.01 1009.67 1009.39 1009.18
1012.40 1012.71 1013.02 1013.33 1013.63 1013.92 1014.19 1014.45 1014.70 1014.94 1015.17 1015.38 1015.57 1015.73 1015.87 1015.99 1016.07 1016.11 1016.12 1016.09 1016.03 1015.93 1015.80 1015.64 1015.45 1015.24 1015.00 1014.75 1014.48 1014.19 1013.88 1013.56 1013.21 1012.84 1012.44 1012.03 1011.59 1011.16 1010.72 1010.31 1009.92 1009.59 1009.31
1012.31 1012.64 1012.97 1013.29 1013.62 1013.94 1014.24 1014.54 1014.83 1015.10 1015.35 1015.58 1015.78 1015.95 1016.08 1016.19 1016.25 1016.29 1016.29 1016.25 1016.18 1016.08 1015.94 1015.77 1015.58 1015.36 1015.12 1014.87 1014.60 1014.33 1014.05 1013.75 1013.44 1013.11 1012.76 1012.38 1011.98 1011.56 1011.14 1010.71 1010.30 1009.92 1009.59
1012.24 1012.57 1012.91 1013.25 1013.59 1013.94 1014.28 1014.62 1014.94 1015.24 1015.52 1015.76 1015.97 1016.14 1016.28 1016.38 1016.44 1016.47 1016.47 1016.43 1016.36 1016.26 1016.12 1015.96 1015.76 1015.54 1015.30 1015.05 1014.79 1014.53 1014.27 1014.00 1013.72 1013.43 1013.12 1012.79 1012.43 1012.04 1011.63 1011.21 1010.79 1010.39 1010.02
1012.16 1012.49 1012.82 1013.17 1013.53 1013.90 1014.28 1014.64 1015.00 1015.33 1015.63 1015.90 1016.12 1016.31 1016.45 1016.55 1016.61 1016.65 1016.65 1016.63 1016.57 1016.48 1016.36 1016.20 1016.01 1015.80 1015.57 1015.32 1015.06 1014.81 1014.55 1014.30 1014.05 1013.79 1013.52 1013.22 1012.90 1012.54 1012.16 1011.76 1011.35 1010.94 1010.55
1012.04 1012.36 1012.69 1013.04 1013.42 1013.81 1014.21 1014.60 1014.99 1015.35 1015.68 1015.96 1016.20 1016.40 1016.55 1016.66 1016.74 1016.79 1016.82 1016.81 1016.78 1016.71 1016.61 1016.47 1016.30 1016.10 1015.88 1015.63 1015.39 1015.14 1014.89 1014.65 1014.42 1014.18 1013.93 1013.67 1013.37 1013.05 1012.69 1012.31 1011.91 1011.50 1011.11
1011.85 1012.15 1012.48 1012.84 1013.22 1013.63 1014.05 1014.48 1014.89 1015.27 1015.62 1015.93 1016.19 1016.40 1016.56 1016.69 1016.79 1016.86 1016.91 1016.93 1016.93 1016.89 1016.82 1016.72 1016.57 1016.40 1016.19 1015.97 1015.73 1015.49 1015.26 1015.03 1014.80 1014.58 1014.35 1014.10 1013.82 1013.51 1013.17 1012.81 1012.42 1012.03 1011.64
1011.55 1011.86 1012.19 1012.56 1012.95 1013.38 1013.82 1014.26 1014.69 1015.09 1015.46 1015.78 1016.05 1016.27 1016.45 1016.60 1016.71 1016.80 1016.88 1016.93 1016.96 1016.97 1016.93 1016.87 1016.76 1016.62 1016.45 1016.26 1016.04 1015.83 1015.61 1015.40 1015.18 1014.97 1014.75 1014.50 1014.24 1013.94 1013.61 1013.25 1012.87 1012.49 1012.10
1011.15 1011.48 1011.83 1012.21 1012.62 1013.06 1013.51 1013.96 1014.41 1014.82 1015.19 1015.51 1015.79 1016.01 1016.20 1016.36 1016.48 1016.60 1016.70 1016.78 1016.84 1016.89 1016.90 1016.88 1016.83 1016.74 1016.61 1016.46 1016.30 1016.12 1015.93 1015.74 1015.55 1015.35 1015.13 1014.89 1014.63 1014.33 1014.00 1013.64 1013.27 1012.88 1012.50
1010.66 1011.02 1011.40 1011.81 1012.24 1012.69 1013.15 1013.61 1014.05 1014.45 1014.82 1015.14 1015.40 1015.63 1015.81 1015.97 1016.10 1016.23 1016.35 1016.45 1016.55 1016.64 1016.70 1016.73 1016.74 1016.71 1016.65 1016.57 1016.46 1016.34 1016.20 1016.06 1015.89 1015.71 1015.51 1015.28 1015.01 1014.71 1014.37 1014.01 1013.63 1013.24 1012.86
1010.11 1010.52 1010.93 1011.37 1011.82 1012.28 1012.74 1013.19 1013.62 1014.01 1014.36 1014.66 1014.91 1015.11 1015.29 1015.44 1015.57 1015.71 1015.84 1015.97 1016.10 1016.22 1016.33 1016.43 1016.50 1016.55 1016.57 1016.56 1016.53 1016.48 1016.41 1016.32 1016.20 1016.05 1015.87 1015.65 1015.39 1015.09 1014.75 1014.38 1013.99 1013.60 1013.21
1009.50 1009.96 1010.42 1010.89 1011.36 1011.83 1012.29 1012.72 1013.13 1013.49 1013.81 1014.08 1014.30 1014.48 1014.64 1014.78 1014.92 1015.05 1015.19 1015.35 1015.51 1015.67 1015.83 1015.99 1016.13 1016.26 1016.36 1016.45 1016.50 1016.54 1016.55 1016.52 1016.46 1016.36 1016.21 1016.01 1015.77 1015.47 1015.14 1014.77 1014.38 1013.99 1013.60
1008.84 1009.36 1009.86 1010.36 1010.85 1011.32 1011.76 1012.17 1012.55 1012.88 1013.16 1013.39 1013.59 1013.75 1013.89 1014.02 1014.15 1014.29 1014.44 1014.62 1014.81 1015.01 1015.22 1015.44 1015.65 1015.86 1016.05 1016.22 1016.37 1016.49 1016.58 1016.63 1016.64 1016.59 1016.49 1016.33 1016.11 1015.83 1015.52 1015.16 1014.78 1014.40 1014.02
1008.11 1008.67 1009.22 1009.74 1010.23 1010.70 1011.13 1011.51 1011.86 1012.15 1012.39 1012.60 1012.76 1012.91 1013.03 1013.16 1013.29 1013.44 1013.62 1013.81 1014.03 1014.28 1014.54 1014.81 1015.09 1015.37 1015.64 1015.89 1016.13 1016.33 1016.50 1016.63 1016.70 1016.72 1016.67 1016.55 1016.37 1016.13 1015.84 1015.51 1015.16 1014.80 1014.45
1007.28 1007.87 1008.44 1008.98 1009.48 1009.94 1010.35 1010.71 1011.02 1011.29 1011.50 1011.68 1011.83 1011.96 1012.09 1012.22 1012.36 1012.53 1012.72 1012.95 1013.20 1013.49 1013.79 1014.12 1014.45 1014.79 1015.13 1015.46 1015.76 1016.04 1016.28 1016.48 1016.62 1016.69 1016.70 1016.63 1016.50 1016.31 1016.07 1015.78 1015.47 1015.15 1014.83
1006.30 1006.92 1007.50 1008.05 1008.56 1009.01 1009.41 1009.75 1010.05 1010.29 1010.49 1010.65 1010.80 1010.93 1011.06 1011.21 1011.37 1011.57 1011.79 1012.05 1012.34 1012.66 1013.01 1013.38 1013.76 1014.16 1014.55 1014.93 1015.29 1015.63 1015.93 1016.18 1016.37 1016.51 1016.57 1016.56 1016.49 1016.35 1016.16 1015.93 1015.67 1015.41 1015.14
1005.17 1005.80 1006.39 1006.95 1007.46 1007.92 1008.31 1008.65 1008.94 1009.17 1009.37 1009.54 1009.69 1009.83 1009.99 1010.16 1010.35 1010.58 1010.84 1011.13 1011.46 1011.82 1012.21 1012.62 1013.04 1013.47 1013.90 1014.33 1014.73 1015.11 1015.46 1015.76 1016.00 1016.18 1016.30 1016.35 1016.33 1016.25 1016.12 1015.95 1015.76 1015.54 1015.33
1003.89 1004.52 1005.13 1005.70 1006.22 1006.68 1007.09 1007.44 1007.73 1007.98 1008.19 1008.37 1008.54 1008.71 1008.89 1009.09 1009.32 1009.58 1009.88 1010.22 1010.59 1010.99 1011.41 1011.85 1012.31 1012.77 1013.24 1013.69 1014.13 1014.55 1014.93 1015.26 1015.55 1015.78 1015.95 1016.05 1016.08 1016.06 1015.99 1015.88 1015.74 1015.59 1015.42
Thickness
5663 5663 5663 5663 5663 5663 5662 5662 5663 5664 5664 5664 5664 5665 5665 5664 5664 5663 5663 5662 5661 5659 5658 5657 5656 5655 5654 5654 5654 5654 5653 5654 5655 5659 5664 5667 5670 5672 5673 5673 5674 5674 5676
5648 5648 5649 5649 5650 5650 5649 5650 5651 5652 5652 5653 5653 5653 5653 5653 5653 5653 5653 5652 5651 5649 5647 5646 5645 5645 5644 5645 5645 5645 5646 5647 5649 5652 5656 5659 5662 5664 5665 5665 5666 5666 5667
5635 5636 5637 5638 5638 5638 5639 5640 5640 5640 5641 5641 5641 5642 5642 5642 5642 5641 5641 5641 5639 5637 5636 5635 5634 5634 5635 5635 5636 5637 5638 5641 5643 5645 5648 5652 5656 5657 5658 5658 5658 5659 5660
5625 5625 5626 5626 5628 5628 5629 5630 5630 5630 5630 5630 5630 5631 5631 5631 5631 5630 5629 5628 5627 5625 5624 5623 5623 5624 5625 5625 5627 5628 5630 5632 5635 5638 5641 5645 5648 5651 5652 5652 5652 5653 5654
5616 5616 5617 5617 5618 5619 5620 5620 5621 5621 5621 5620 5620 5620 5620 5620 5620 5619 5618 5616 5614 5613 5612 5611 5612 5614 5615 5615 5617 5618 5620 5622 5625 5628 5631 5635 5638 5641 5643 5646 5647 5648 5648
5609 5609 5610 5610 5610 5611 5611 5612 5612 5611 5610 5610 5608 5608 5608 5609 5609 5609 5608 5605 5603 5601 5600 5599 5601 5601 5602 5604 5605 5607 5608 5610 5611 5614 5617 5621 5624 5629 5634 5637 5640 5642 5643
5603 5603 5603 5603 5603 5603 5603 5602 5602 5601 5600 5599 5598 5598 5597 5597 5599 5598 5597 5594 5591 5589 5587 5587 5588 5588 5589 5591 5593 5596 5597 5598 5599 5601 5604 5607 5611 5616 5622 5628 5633 5636 5639
5598 5598 5597 5596 5596 5595 5595 5594 5593 5592 5591 5590 5589 5588 5588 5588 5589 5588 5586 5583 5580 5577 5576 5575 5575 5576 5577 5578 5581 5583 5585 5586 5587 5590 5592 5595 5599 5604 5611 5617 5623 5628 5632
5593 5593 5592 5592 5590 5589 5588 5587 5586 5584 5583 5582 5581 5580 5580 5579 5580 5579 5577 5574 5571 5568 5566 5565 5565 5565 5565 5567 5569 5569 5572 5573 5575 5577 5579 5583 5587 5593 5598 5606 5611 5616 5619
5590 5589 5588 5587 5586 5584 5582 5581 5579 5578 5577 5576 5574 5573 5573 5571 5571 5571 5569 5567 5563 5560 5558 5557 5556 5555 5555 5556 5556 5556 5557 5558 5560 5565 5568 5572 5575 5580 5584 5588 5593 5599 5604
5588 5586 5584 5583 5581 5579 5577 5576 5574 5573 5571 5569 5567 5565 5565 5563 5563 5562 5561 5559 5556 5553 5551 5549 5548 5546 5546 5546 5545 5545 5544 5545 5548 5551 5554 5558 5562 5565 5569 5573 5578 5583 5588
5585 5583 5580 5578 5577 5575 5573 5571 5570 5568 5566 5564 5562 5559 5558 5556 5555 5554 5552 5550 5548 5545 5542 5540 5538 5537 5537 5536 5535 5534 5534 5536 5538 5539 5541 5543 5545 5549 5553 5558 5563 5569 5574
5583 5580 5577 5575 5573 5572 5570 5568 5566 5564 5563 5560 5558 5556 5553 5550 5548 5546 5544 5542 5540 5537 5534 5532 5531 5529 5528 5527 5525 5523 5524 5524 5524 5525 5526 5527 5530 5534 5539 5545 5551 5556 5561
5582 5578 5575 5572 5570 5568 5567 5566 5565 5563 5561 5558 5555 5552 5549 5546 5543 5540 5538 5535 5533 5531 5528 5525 5523 5521 5519 5517 5515 5513 5512 5511 5511 5511 5512 5514 5517 5522 5526 5530 5535 5540 5546
5581 5577 5574 5571 5568 5566 5564 5563 5563 5562 5561 5557 5554 5550 5546 5543 5539 5536 5532 5530 5527 5524 5521 5519 5517 5514 5512 5509 5506 5504 5502 5501 5500 5499 5500 5502 5504 5508 5511 5515 5519 5524 5528
5581 5576 5572 5569 5566 5563 5561 5558 5558 5557 5556 5554 5551 5547 5544 5540 5536 5532 5528 5525 5522 5519 5516 5513 5510 5507 5504 5501 5499 5496 5493 5491 5489 5488 5488 5489 5491 5493 5497 5500 5504 5508 5512
5581 5577 5572 5568 5565 5561 5559 5558 5554 5551 5550 5549 5546 5543 5540 5536 5532 5528 5524 5521 5518 5514 5511 5508 5505 5501 5498 5494 5491 5488 5484 5480 5478 5478 5477 5477 5478 5480 5482 5485 5489 5493 5497
5580 5576 5572 5568 5565 5561 5558 5556 5553 5551 5548 5545 5542 5539 5536 5533 5529 5525 5521 5517 5514 5510 5507 5504 5500 5496 5492 5488 5484 5480 5476 5473 5470 5468 5467 5466 5466 5467 5468 5470 5473 5476 5481
5577 5573 5570 5566 5563 5560 5556 5553 5550 5548 5545 5543 5540 5537 5533 5529 5525 5521 5517 5514 5512 5509 5505 5500 5496 5492 5487 5482 5477 5473 5469 5465 5462 5459 5457 5455 5455 5455 5456 5457 5459 5460 5464
5574 5571 5568 5564 5560 5557 5554 5551 5547 5545 5542 5540 5538 5537 5532 5527 5524 5521 5516 5513 5510 5507 5503 5498 5493 5488 5483 5478 5472 5467 5462 5458 5454 5451 5448 5446 5445 5444 5444 5445 5446 5448 5451
5571 5568 5565 5562 5558 5556 5553 5550 5547 5544 5541 5539 5538 5538 5532 5529 5527 5524 5519 5514 5510 5507 5502 5497 5491 5486 5480 5473 5467 5461 5456 5452 5447 5443 5440 5437 5435 5434 5434 5434 5435 5436 5438
5569 5565 5563 5560 5556 5554 5551 5549 5546 5543 5541 5539 5538 5536 5530 5527 5527 5524 5521 5517 5513 5508 5503 5496 5490 5484 5477 5470 5464 5457 5451 5446 5441 5436 5433 5429 5427 5425 5424 5424 5424 5425 5426
5567 5563 5560 5557 5554 5551 5549 5547 5544 5542 5540 5538 5537 5534 5531 5528 5526 5524 5522 5519 5514 5508 5501 5494 5488 5482 5475 5468 5460 5453 5447 5441 5435 5430 5426 5422 5419 5417 5415 5414 5414 5414 5415
5567 5563 5559 5556 5552 5550 5547 5545 5543 5541 5539 5538 5536 5534 5531 5529 5527 5525 5522 5519 5513 5507 5501 5494 5487 5480 5473 5465 5457 5449 5443 5437 5430 5424 5419 5415 5412 5409 5406 5405 5404 5404 5404
5569 5564 5560 5556 5553 5550 5547 5544 5542 5541 5539 5537 5536 5534 5532 5530 5527 5525 5521 5517 5512 5506 5500 5493 5486 5478 5471 5463 5455 5447 5440 5432 5425 5419 5413 5408 5404 5400 5398 5396 5395 5394 5393
5570 5566 5562 5558 5554 5551 5547 5545 5543 5541 5539 5538 5536 5535 5533 5530 5528 5525 5521 5516 5511 5505 5499 5492 5485 5477 5469 5460 5452 5444 5435 5427 5420 5413 5407 5402 5397 5394 5390 5388 5386 5385 5384